This demonstration page uses our WeatherBlox Daily Observations layout. Learn more.

39.51506, -84.39828

Hourly Observations for November 9, 2019

Temp ( °F °C ) Dew Point ( °F °C ) Humidity (%) Winds ( mph kmh ) Pressure ( in mb ) Visibility ( mi km ) Precip ( " mm )
12:15 am 00:15 Clear 21 -5.9 20 -6.8 93 93 Calm 30.38 1029 10 16.0934 0 0
12:35 am 00:35 Clear 20 -6.5 19 -7.4 93 93 Calm 30.37 1029 10 16.0934 0 0
12:55 am 00:55 Clear 21 -5.9 20 -6.8 93 93 Calm 30.38 1029 10 16.0934 0 0
1:15 am 01:15 Clear 22 -5.8 20 -6.6 94 94 Calm 30.36 1028 10 16.0934 0 0
1:35 am 01:35 Clear 22 -5.8 20 -6.8 93 93 Calm 30.34 1027 10 16.0934 0 0
1:55 am 01:55 Clear 22 -5.3 21 -6 95 95 Calm 30.34 1027 10 16.0934 0 0
2:15 am 02:15 Clear 22 -5.7 20 -6.4 95 95 Calm 30.33 1027 10 16.0934 0 0
2:35 am 02:35 Clear 22 -5.6 20 -6.4 94 94 Calm 30.33 1027 10 16.0934 0 0
2:55 am 02:55 Clear 22 -5.3 21 -6.1 94 94 Calm 30.33 1027 10 16.0934 0 0
3:15 am 03:15 Clear 23 -5.1 22 -5.8 95 95 Calm 30.32 1027 10 16.0934 0 0
3:35 am 03:35 Clear 23 -4.9 22 -5.6 95 95 Calm 30.32 1027 10 16.0934 0 0
3:55 am 03:55 Clear 24 -4.6 22 -5.4 94 94 Calm 30.3 1026 10 16.0934 0 0
4:15 am 04:15 Clear 24 -4.4 23 -5.2 94 94 Calm 30.3 1026 10 16.0934 0 0
4:35 am 04:35 Clear 25 -4 23 -4.9 94 94 Calm 30.3 1026 10 16.0934 0 0
4:55 am 04:55 Clear 25 -4 23 -4.9 94 94 Calm 30.3 1026 10 16.0934 0 0
5:15 am 05:15 Clear 26 -3.5 24 -4.7 92 92 Calm 30.3 1026 10 16.0934 0 0
5:35 am 05:35 Clear 26 -3.4 23 -5.2 88 88 Calm 30.28 1026 10 16.0934 0 0
5:55 am 05:55 Clear 26 -3.5 23 -5.1 89 89 Calm 30.29 1026 10 16.0934 0 0
6:15 am 06:15 Clear 26 -3.4 23 -5.1 88 88 Calm 30.28 1026 10 16.0934 0 0
6:35 am 06:35 Clear 26 -3.5 23 -4.9 90 90 Calm 30.3 1026 10 16.0934 0 0
6:55 am 06:55 Clear 26 -3.2 23 -4.8 89 89 Calm 30.29 1026 10 16.0934 0 0
7:15 am 07:15 Sunny 26 -3.1 23 -5 87 87 Calm 30.29 1026 10 16.0934 0 0
7:35 am 07:35 Sunny 27 -2.9 23 -4.8 87 87 Calm 30.28 1026 10 16.0934 0 0
7:55 am 07:55 Sunny 27 -2.9 24 -4.3 90 90 Calm 30.27 1025 10 16.0934 0 0
8:15 am 08:15 Sunny 28 -2.3 25 -3.9 89 89 Calm 30.27 1025 10 16.0934 0 0
8:35 am 08:35 Partly Cloudy 28 -2 25 -4 86 86 Calm 30.27 1025 10 16.0934 0 0
8:55 am 08:55 Cloudy 29 -1.5 25 -4 83 83 Calm 30.27 1025 10 16.0934 0 0
9:15 am 09:15 Cloudy 30 -1.2 24 -4.2 80 80 S 7 11 30.26 1025 10 16.0934 0 0
9:35 am 09:35 Cloudy 30 -0.9 24 -4.2 79 79 SSW 7 11 30.25 1024 10 16.0934 0 0
9:55 am 09:55 Cloudy 31 -0.3 24 -4.3 75 75 SSW 9 15 30.23 1024 10 16.0934 0 0
10:15 am 10:15 Cloudy 32 0.2 25 -4 74 74 S 8 13 30.22 1024 10 16.0934 0 0
10:35 am 10:35 Cloudy 33 0.8 24 -4.5 68 68 SW 9 15 30.21 1023 10 16.0934 0 0
10:55 am 10:55 Cloudy 34 1.3 23 -4.8 64 64 SSW 8 13 30.21 1023 10 16.0934 0 0
11:15 am 11:15 Cloudy 36 2.3 23 -4.9 59 59 SSW 12 19 30.2 1023 10 16.0934 0 0
11:35 am 11:35 Cloudy 37 2.6 21 -6 53 53 SSW 14 22 30.2 1023 10 16.0934 0 0
11:55 am 11:55 Cloudy 36 2.4 21 -6.3 53 53 SW 14 22 30.19 1022 10 16.0934 0 0
12:15 pm 12:15 Cloudy 38 3.2 22 -5.7 52 52 SW 13 20 30.18 1022 10 16.0934 0 0
12:35 pm 12:35 Cloudy 38 3.5 21 -6.2 49 49 SW 13 20 30.17 1022 10 16.0934 0 0
12:55 pm 12:55 Cloudy 39 3.8 21 -6.1 49 49 SSW 10 17 30.16 1021 10 16.0934 0 0
1:15 pm 13:15 Mostly Cloudy 40 4.7 23 -5 50 50 SSW 8 13 30.13 1020 10 16.0934 0 0
1:35 pm 13:35 Sunny 41 5 22 -5.7 46 46 SW 12 19 30.12 1020 10 16.0934 0 0
1:55 pm 13:55 Sunny 42 5.6 22 -5.8 44 44 SSW 15 24 30.11 1020 10 16.0934 0 0
2:15 pm 14:15 Sunny 42 5.8 22 -5.5 44 44 S 10 17 30.1 1019 10 16.0934 0 0
2:35 pm 14:35 Sunny 43 6.3 22 -5.4 43 43 SW 14 22 30.1 1019 10 16.0934 0 0
2:55 pm 14:55 Sunny 44 6.5 22 -5.5 42 42 SW 14 22 30.09 1019 10 16.0934 0 0
3:15 pm 15:15 Sunny 44 6.9 22 -5.5 41 41 SSW 13 20 30.08 1019 10 16.0934 0 0
3:35 pm 15:35 Sunny 45 7.3 22 -5.3 41 41 SW 14 22 30.07 1018 10 16.0934 0 0
3:55 pm 15:55 Sunny 45 7.3 23 -5.2 41 41 SSW 10 17 30.07 1018 10 16.0934 0 0
4:15 pm 16:15 Sunny 46 7.5 23 -4.9 41 41 S 12 19 30.06 1018 10 16.0934 0 0
4:35 pm 16:35 Sunny 45 7.4 22 -5.5 40 40 SSW 10 17 30.06 1018 10 16.0934 0 0
4:55 pm 16:55 Sunny 45 7.2 22 -5.6 40 40 SSW 13 20 30.06 1018 10 16.0934 0 0
5:15 pm 17:15 Sunny 44 6.5 22 -5.5 42 42 SSW 10 17 30.06 1018 10 16.0934 0 0
5:35 pm 17:35 Clear 43 6.3 22 -5.7 42 42 SSW 10 17 30.06 1018 10 16.0934 0 0
5:55 pm 17:55 Clear 42 5.8 22 -5.5 44 44 S 9 15 30.05 1018 10 16.0934 0 0
6:15 pm 18:15 Clear 42 5.4 22 -5.3 46 46 SSW 8 13 30.05 1018 10 16.0934 0 0
6:35 pm 18:35 Clear 40 4.7 23 -5.2 49 49 SSW 8 13 30.05 1018 10 16.0934 0 0
6:55 pm 18:55 Clear 40 4.6 23 -5.2 49 49 SSW 8 13 30.05 1018 10 16.0934 0 0
7:15 pm 19:15 Clear 40 4.4 22 -5.3 50 50 SSW 7 11 30.06 1018 10 16.0934 0 0
7:35 pm 19:35 Clear 37 3 23 -5.2 55 55 SSW 6 9 30.06 1018 10 16.0934 0 0
7:55 pm 19:55 Clear 38 3.2 25 -3.9 60 60 WSW 5 7 30.07 1018 10 16.0934 0 0
8:15 pm 20:15 Clear 37 2.7 25 -3.9 62 62 SW 6 9 30.07 1018 10 16.0934 0 0
8:35 pm 20:35 Clear 35 1.8 24 -4.3 64 64 SW 3 6 30.07 1018 10 16.0934 0 0
8:55 pm 20:55 Clear 34 1.3 26 -3.5 71 71 WSW 5 7 30.07 1018 10 16.0934 0 0
9:15 pm 21:15 Clear 33 0.8 26 -3.4 74 74 Calm 30.07 1018 10 16.0934 0 0
9:35 pm 21:35 Clear 33 0.6 28 -2.5 80 80 Calm 30.07 1018 10 16.0934 0 0
9:55 pm 21:55 Clear 33 0.3 28 -2.1 84 84 Calm 30.06 1018 10 16.0934 0 0
10:15 pm 22:15 Clear 33 0.5 29 -1.7 85 85 Calm 30.06 1018 10 16.0934 0 0
10:35 pm 22:35 Clear 35 1.5 29 -1.7 80 80 Calm 30.06 1018 10 16.0934 0 0
10:55 pm 22:55 Clear 35 1.5 29 -1.5 81 81 Calm 30.07 1018 10 16.0934 0 0
11:15 pm 23:15 Clear 35 1.9 29 -1.8 77 77 Calm 30.07 1018 10 16.0934 0 0
11:35 pm 23:35 Clear 36 2.4 27 -2.6 70 70 Calm 30.06 1018 10 16.0934 0 0
11:55 pm 23:55 Clear 38 3.4 27 -2.8 64 64 SSW 3 6 30.06 1018 10 16.0934 0 0

Powered by AerisWeather